Weather in Anapskiy

Russia / Krasnodar Krai     45°46′58″N   39°28′48″E
temp.,
°C
wind,
m/s
gust,
m/s
humid.,
%
clouds,
%
prec.,
mm/h
press.,
hPa
HPBL,
m
17 april, sat
sat1700:00+9ssw2294100 0.1 102045
03:00+9w3598100 1.0 1020234
06:00+8w3592100 0.5 1021233
09:00+9wnw3578100 0.7 1022371
12:00+12sw3365100 0.1 10231033
15:00+14sw2254100 0.1 10221588
18:00+13s2366100 0.0 102276
21:00+7s34940 0.0 102384
18 april, sun
sun1800:00+7se228999 0.0 102212
03:00+9ene2481100 0.0 1021111
06:00+9e4781100 0.0 1020238
09:00+8e4993100 2.3 1019394
12:00+9e4993100 1.6 1019344
15:00+9ene4796100 2.7 1018296
18:00+9ese2498100 2.9 1018183
21:00+10ese2498100 6.6 1017112
19 april, mon
mon1900:00+10e1196100 0.0 101610
03:00+11ese1195100 0.1 101610
06:00+10sse2296100 0.0 101516
09:00+11ssw3699100 3.3 1015189
12:00+12ssw2596100 1.9 1015220
15:00+15sw1287100 1.9 1014339
18:00+15ne2292100 0.1 101352
21:00+14ese4996100 0.4 1011238
20 april, tue
tue2000:00+14ene51292100 0.3 1008282
03:00+13ene71394100 0.6 1003250
06:00+14ese41291100 0.1 1001287
09:00+17sw61281100 0.1 1002699
12:00+17sw101568100 0.0 10061188
15:00+15sw81362100 0.0 1007934
18:00+15ssw813695 0.0 10091117
21:00+10sw1017747 0.0 10121063
21 april, wed
wed2100:00+10sw91472100 0.0 10141376
03:00+10wsw7127727 0.0 1016883
06:00+7sw399176 0.0 1018291
09:00+12sw3473100 0.0 1019596
12:00+15wsw345654 0.0 10201613
15:00+16w2253100 0.0 10191674
18:00+15ene116486 0.0 102014
21:00+13e3463100 0.0 102187